DW3383 Weather Reports


Display with metric or nautical units.
time (UTC)temp
F
wind
direction
speed
MPH
gust
MPH
rain 1hr
in
rain 24hr
in
rain mn
in
humidity
%
barometer
mb
20260503000806 57 314 2.0 9.0 0.00 0.00 0.00 43 1012.1
20260503000306 57 308 1.0 7.0 0.00 0.00 0.00 43 1012.0
20260502230805 57 330 1.0 5.0 0.00 0.00 0.00 43 1012.5
20260502230305 57 329 3.0 8.0 0.00 0.00 0.00 43 1012.3
20260502220804 57 316 3.0 7.0 0.00 0.00 0.00 43 1011.6
20260502210804 58 314 2.0 7.0 0.00 0.00 0.00 42 1011.3
20260502210305 58 313 3.0 9.0 0.00 0.00 0.00 43 1011.2
20260502200805 56 280 3.0 8.0 0.00 0.00 0.00 44 1011.4
20260502190805 54 300 2.0 8.0 0.00 0.00 0.00 47 1011.1
20260502190307 54 303 2.0 8.0 0.00 0.00 0.00 47 1011.2
20260502180804 54 289 2.0 3.0 0.00 0.00 0.00 50 1010.7
20260502180305 53 309 2.0 7.0 0.00 0.00 0.00 51 1010.8
20260502170306 51 280 4.0 9.0 0.00 0.00 0.00 62 1010.0
20260502160804 47 339 2.0 6.0 0.00 0.00 0.00 68 1009.3
20260502160305 47 7 3.0 8.0 0.00 0.00 0.00 68 1009.2
20260502150804 43 288 3.0 8.0 0.00 0.00 0.00 72 1008.4
20260502150305 43 278 5.0 12.0 0.00 0.00 0.00 72 1008.5
20260502130305 40 357 3.0 12.0 0.00 0.00 0.00 76 1008.1
20260502120805 40 326 4.0 7.0 0.00 0.00 0.00 76 1007.9
20260502110804 41 290 5.0 8.0 0.00 0.00 0.00 73 1008.1
20260502110305 41 6 4.0 10.0 0.00 0.00 0.00 74 1008.2
20260502100805 41 8 5.0 7.0 0.00 0.00 0.00 71 1008.8
20260502100304 41 294 6.0 12.0 0.00 0.00 0.00 70 1008.6
20260502090805 41 296 5.0 9.0 0.00 0.00 0.00 67 1008.8
20260502090305 41 286 6.0 10.0 0.00 0.00 0.00 66 1008.8
20260502070812 41 14 4.0 8.0 0.00 0.00 0.00 62 1009.5
20260502070305 41 6 5.0 9.0 0.00 0.00 0.00 62 1009.3
20260502060804 41 341 5.0 9.0 0.00 0.00 0.00 61 1010.3
20260502060304 41 309 3.0 9.0 0.00 0.00 0.00 60 1010.4
20260502050304 42 293 5.0 10.0 0.00 0.00 0.00 60 1010.6
20260502040804 44 284 5.0 9.0 0.00 0.00 0.00 58 1010.3
20260502040305 44 305 5.0 8.0 0.00 0.00 0.00 57 1010.3
20260502030804 46 301 2.0 5.0 0.00 0.00 0.00 55 1010.5
20260502030305 47 270 2.0 9.0 0.00 0.00 0.00 56 1010.6
20260502020805 51 325 5.0 8.0 0.00 0.00 0.00 46 1011.0
20260502020305 51 302 5.0 9.0 0.00 0.00 0.00 48 1011.0
20260502010304 52 299 4.0 7.0 0.00 0.00 0.00 48 1011.2